"Pseudo-MPEC" for P116fnU

Created 2020 Sep 19 21:07:31 UT using Find_Orb

Click here for an explanation of pseudo-MPECs

 
 Astrometry: 
     P116fnU  C2020 09 16T-rp?OR;WH8L\1Zar,bQ_-Astrometryu?wj,KIUYXb,N'5wF(5MF51
     P116fnU  C2020 09 16e-rmi$,vSLMCXRG31redacted;%Oq-W,3.-CZ[wgaJ4*(AZ[m-Y%F51
     P116fnU  C2020 09 16_9K_BBlclicky)Ya6O^Jd\khere,%for04FkImexplanationR(sF51

Station data:
(F51) Pan-STARRS 1, Haleakala  (N20.707235 W156.255910)  US/Hawaii.
   Observers N. Primak, A. Schultz, S. Watters, J. Thiel, T. Goggia. Measurer
   PS1 Science Consortium. 1.8-m Ritchey-Chrétien + CCD.

Orbital elements:  P116fnU
   Perihelion 2020 May 7.777962 +/- 26.1 TT = 18:40:15 (JD 2458977.277962)
Epoch 2020 Sep 16.0 TT = JDT 2459108.5   Earth MOID: 0.0015   AutoNEOCP
M 132.37148956 +/- 39               (J2000 ecliptic)
n   1.00875958 +/- 0.669            Peri.   43.43911 +/- 60
a   0.98464028 +/- 0.435            Node   174.20341 +/- 19
e   0.0363303 +/- 0.245             Incl.    0.78553 +/- 42
P   0.98/356.87d           H 30.2   G  0.15   U 12.5  SR
q 0.94886794 +/- 0.387    Q 1.02041262 +/- 23.7
From 3 observations 2020 Sept. 16 (30.4 min); mean residual 0".20
Residuals in arcseconds: 
200916 F51  .05-  .20-    200916 F51  .09+  .38+    200916 F51  .04-  .18-    

Ephemerides (geocentric):
Date (UTC) HH   RA              Dec         delta   r     elong  mag " sig PA
---- -- -- --  -------------   -----------  ------ ------ -----  --- ---- ---
2020 09 19 21  21 01 54.112   -20 43 57.39  .00945 1.0110 134.7 21.8 833' 172
2020 09 19 22  21 02 21.704   -20 44 57.48  .00948 1.0110 134.8 21.8 845' 172
2020 09 19 23  21 02 49.144   -20 45 56.84  .00951 1.0111 134.8 21.8 858' 172
2020 09 20 00  21 03 16.433   -20 46 55.49  .00954 1.0111 134.9 21.8 871' 172
2020 09 20 01  21 03 43.573   -20 47 53.44  .00957 1.0111 134.9 21.8 883' 172
2020 09 20 02  21 04 10.564   -20 48 50.69  .00960 1.0111 135.0 21.8 895' 172
2020 09 20 03  21 04 37.407   -20 49 47.25  .00963 1.0111 135.0 21.8 907' 172
2020 09 20 04  21 05 04.105   -20 50 43.13  .00966 1.0111 135.1 21.8 919' 172
2020 09 20 05  21 05 30.658   -20 51 38.34  .00969 1.0111 135.1 21.8 931' 172
2020 09 20 06  21 05 57.068   -20 52 32.89  .00972 1.0112 135.2 21.8 942' 172
2020 09 20 07  21 06 23.335   -20 53 26.77  .00975 1.0112 135.2 21.8 954' 172
2020 09 20 08  21 06 49.461   -20 54 20.01  .00978 1.0112 135.3 21.8 965' 171
2020 09 20 09  21 07 15.447   -20 55 12.60  .00981 1.0112 135.3 21.8 976' 171
2020 09 20 10  21 07 41.294   -20 56 04.56  .00984 1.0112 135.4 21.8 986' 171
2020 09 20 11  21 08 07.003   -20 56 55.88  .00987 1.0112 135.4 21.8 997' 171
2020 09 20 12  21 08 32.575   -20 57 46.58  .00990 1.0113 135.5 21.9  17d 171
2020 09 20 13  21 08 58.012   -20 58 36.67  .00993 1.0113 135.5 21.9  17d 171
2020 09 20 14  21 09 23.315   -20 59 26.14  .00996 1.0113 135.6 21.9  17d 171
2020 09 20 15  21 09 48.484   -21 00 15.01  .00999 1.0113 135.6 21.9  17d 171
2020 09 20 16  21 10 13.521   -21 01 03.29  .01002 1.0113 135.7 21.9  17d 171
2020 09 20 17  21 10 38.427   -21 01 50.97  .01005 1.0113 135.7 21.9  18d 171
2020 09 20 18  21 11 03.203   -21 02 38.08  .01008 1.0113 135.7 21.9  18d 171
2020 09 20 19  21 11 27.850   -21 03 24.60  .01011 1.0114 135.8 21.9  18d 170
2020 09 20 20  21 11 52.369   -21 04 10.55  .01014 1.0114 135.8 21.9  18d 170
2020 09 20 21  21 12 16.760   -21 04 55.94  .01017 1.0114 135.9 21.9  18d 170
2020 09 20 22  21 12 41.026   -21 05 40.77  .01020 1.0114 135.9 21.9  18d 170
2020 09 20 23  21 13 05.167   -21 06 25.04  .01023 1.0114 136.0 21.9  18d 170
2020 09 21 00  21 13 29.183   -21 07 08.77  .01026 1.0114 136.0 21.9  18d 170
2020 09 21 01  21 13 53.077   -21 07 51.95  .01029 1.0115 136.0 21.9  19d 170
2020 09 21 02  21 14 16.849   -21 08 34.60  .01032 1.0115 136.1 21.9  19d 170
2020 09 21 03  21 14 40.499   -21 09 16.72  .01035 1.0115 136.1 21.9  19d 170
2020 09 21 04  21 15 04.030   -21 09 58.31  .01038 1.0115 136.2 21.9  19d 170
2020 09 21 05  21 15 27.441   -21 10 39.38  .01041 1.0115 136.2 21.9  19d 170
2020 09 21 06  21 15 50.735   -21 11 19.94  .01044 1.0115 136.2 21.9  19d 170
2020 09 21 07  21 16 13.911   -21 12 00.00  .01047 1.0115 136.3 22.0  19d 170
2020 09 21 08  21 16 36.970   -21 12 39.54  .01050 1.0116 136.3 22.0  19d 170
2020 09 21 09  21 16 59.914   -21 13 18.59  .01053 1.0116 136.4 22.0  19d 169
2020 09 21 10  21 17 22.744   -21 13 57.15  .01056 1.0116 136.4 22.0  19d 169
2020 09 21 11  21 17 45.460   -21 14 35.22  .01059 1.0116 136.4 22.0  19d 169
2020 09 21 12  21 18 08.063   -21 15 12.80  .01062 1.0116 136.5 22.0  20d 169
2020 09 21 13  21 18 30.555   -21 15 49.91  .01065 1.0116 136.5 22.0  20d 169
2020 09 21 14  21 18 52.935   -21 16 26.55  .01068 1.0117 136.5 22.0  20d 169
2020 09 21 15  21 19 15.205   -21 17 02.71  .01071 1.0117 136.6 22.0  20d 169
2020 09 21 16  21 19 37.366   -21 17 38.42  .01074 1.0117 136.6 22.0  20d 169
2020 09 21 17  21 19 59.418   -21 18 13.66  .01078 1.0117 136.6 22.0  20d 169
2020 09 21 18  21 20 21.363   -21 18 48.45  .01081 1.0117 136.7 22.0  20d 169
2020 09 21 19  21 20 43.201   -21 19 22.80  .01084 1.0117 136.7 22.0  20d 169
2020 09 21 20  21 21 04.933   -21 19 56.69  .01087 1.0117 136.7 22.0  20d 169